Location: Laterina
(43.5167°N, 11.7167°E)
Time: 16:32:55
(UTC+00:00)

Cosmos 2263 Rocket - Pass Details

Date: 24 September 2020
Orbit: 822 x 850 km, 71.0° (Epoch: 25 October)

Event Time Altitude Azimuth Distance (km) Brightness Sun altitude
Rises 17:50:27 0° 234° (SW) 3,349 6.1 -8.8°
Reaches altitude 10° 17:53:09 10° 245° (WSW) 2,423 5.6 -9.3°
Maximum altitude 17:58:00 30° 306° (NW) 1,444 4.2 -10.2°
Drops below altitude 10° 18:02:54 10° 7° (N) 2,448 4.6 -11.1°
Sets 18:05:40 0° 18° (NNE) 3,390 5.3 -11.6°
